Theta_e
337 339 339 339 339 338 337 336 336 335 335 334 333 332 330 329 329 327 325 325 324 324 325 334 333 334 337 337 337 336 336 336 336 336 335 335 337 340 342 340 338 336 335 333 332 332 331 332 331 330 329 329 329 327 325 325 325 324 324 323 323 322 322 322 322 322 322 321 321 320 319 318 318 318 318 317 318 318 319 319 318 317 318 318 318
336 337 338 338 338 337 337 336 336 335 334 333 332 331 331 329 329 328 327 326 325 325 327 332 332 334 336 337 337 337 336 336 335 335 335 335 336 339 341 339 337 337 334 333 332 331 332 331 330 329 328 329 329 328 326 325 324 324 323 323 322 322 322 321 321 321 321 321 321 320 319 318 318 317 316 316 317 317 318 317 317 317 317 318 318
334 336 337 338 338 337 337 336 335 335 334 334 333 331 330 331 330 329 327 325 325 325 326 330 331 333 336 336 336 336 336 335 335 335 335 334 334 335 337 338 336 334 333 332 332 332 331 331 330 329 328 328 327 327 327 326 324 323 323 322 321 321 320 320 320 320 319 319 319 319 319 318 317 317 317 316 316 316 317 316 316 316 317 318 318
333 334 336 337 337 336 336 335 335 335 334 334 333 332 330 331 332 331 329 328 329 328 327 329 330 332 335 335 336 336 335 334 334 334 334 333 332 333 332 333 335 333 333 332 331 331 331 330 330 329 327 327 326 325 325 324 323 322 321 321 320 320 320 320 320 320 319 318 318 319 319 318 318 318 318 316 316 316 316 316 316 316 317 318 317
333 333 336 335 336 335 335 335 335 334 333 334 334 332 330 330 331 332 330 330 331 330 331 330 330 332 334 334 335 335 335 334 333 332 332 332 330 329 329 330 329 333 332 331 331 330 330 329 329 328 328 326 325 324 324 323 322 321 320 320 319 318 318 318 318 320 320 318 318 318 317 317 317 318 318 316 316 317 316 316 316 317 317 318 317
333 332 333 332 334 335 335 335 335 334 334 334 333 331 330 328 328 332 336 333 331 331 330 330 330 331 332 333 333 334 334 333 332 331 331 330 329 328 327 326 325 325 327 331 330 330 329 329 328 328 327 326 325 324 323 323 322 321 320 319 317 317 317 317 317 318 319 319 318 318 317 316 316 317 317 315 316 317 316 316 317 317 317 316 317
334 333 332 331 332 333 335 335 336 334 334 334 333 331 330 329 331 333 332 331 331 332 331 331 331 331 331 333 332 333 333 333 332 331 330 329 328 327 326 325 323 323 326 323 331 330 329 329 328 328 328 328 327 325 325 324 323 322 320 318 317 316 316 316 317 317 318 317 317 318 317 316 316 317 316 315 316 316 316 317 317 317 316 316 316
336 334 332 332 331 332 333 335 336 335 334 333 332 331 330 331 334 335 332 331 332 330 330 331 331 331 332 332 332 333 332 332 332 331 329 328 327 326 325 324 323 322 327 322 323 327 328 329 329 328 327 327 327 326 326 324 323 322 320 319 319 318 316 315 316 317 317 316 317 317 316 315 315 316 315 316 316 316 317 317 317 316 316 316 316
339 336 335 333 333 333 334 335 336 334 332 333 332 331 331 332 332 332 334 332 332 331 331 331 331 332 332 332 332 332 331 331 332 331 328 326 326 325 324 323 324 331 324 321 321 323 327 329 329 328 327 327 326 327 326 325 324 322 320 318 317 316 316 316 316 317 317 317 316 316 315 314 315 315 315 316 316 316 317 316 315 316 315 315 315
338 338 337 335 335 334 334 334 335 333 331 332 331 331 331 332 330 330 332 333 331 331 330 330 332 331 331 331 331 331 330 330 331 334 326 325 325 324 323 322 324 324 322 321 321 321 322 328 329 328 327 325 325 325 324 323 323 322 319 317 316 318 318 317 316 316 317 316 316 315 314 314 315 314 315 316 316 316 317 315 315 315 315 315 315
337 338 337 336 335 334 334 334 334 332 332 331 331 330 331 329 332 330 330 330 333 332 331 331 331 331 330 330 328 329 329 328 330 330 326 325 325 326 323 321 322 322 320 320 319 319 320 321 321 318 321 325 325 325 325 324 323 322 321 319 318 317 318 317 316 315 316 315 315 314 313 314 314 314 315 316 316 317 317 315 315 315 315 314 315
336 337 337 337 334 333 333 334 333 332 332 331 331 330 330 329 329 331 331 331 330 331 331 330 328 326 326 325 326 326 327 327 328 328 324 325 325 324 321 320 320 320 320 320 319 319 319 319 320 317 317 324 326 325 326 325 324 323 323 322 320 319 316 316 316 314 315 315 314 313 313 313 313 313 315 315 315 317 316 315 315 315 314 314 315
336 336 336 339 335 332 333 334 333 333 334 332 332 331 331 331 330 330 331 329 328 330 330 330 327 322 320 321 323 325 331 328 325 324 321 323 324 323 321 320 319 319 319 319 319 318 318 317 317 316 316 317 322 325 324 324 324 322 322 322 320 318 317 316 315 314 314 314 313 313 313 313 313 313 314 315 315 316 316 314 314 314 314 314 315
336 335 336 336 336 332 332 335 334 333 335 335 332 334 332 330 330 327 328 328 329 331 330 328 321 321 320 318 320 319 322 322 325 325 319 319 321 322 320 319 319 319 318 318 318 318 318 317 316 316 315 315 316 315 318 321 322 323 320 319 319 318 317 316 315 314 313 312 312 312 312 313 313 313 314 314 314 315 315 313 314 313 313 314 314
335 336 335 336 337 335 334 336 335 334 335 334 333 332 331 331 330 330 327 327 326 330 330 328 322 320 319 319 314 316 318 320 321 323 323 317 316 317 319 319 319 318 318 318 317 317 318 317 316 316 315 314 314 315 315 320 317 324 322 319 319 319 317 316 315 314 313 311 312 312 313 313 313 313 313 313 314 314 314 313 313 313 313 313 314
335 336 336 336 337 338 337 337 337 336 336 335 332 332 331 331 330 330 330 327 327 329 331 327 324 323 316 315 313 313 310 316 319 320 323 321 316 315 315 316 316 316 317 317 317 316 316 316 316 316 315 314 314 314 314 312 320 324 323 320 320 319 318 317 316 313 313 312 312 313 313 312 313 312 312 313 314 314 313 313 313 313 313 314 314
335 336 336 335 337 339 339 339 338 338 337 336 334 333 333 332 331 330 330 329 326 325 330 329 326 327 322 316 313 312 314 313 315 318 320 322 319 315 317 313 312 312 317 317 317 316 316 316 315 315 314 313 313 313 313 314 316 318 320 322 320 319 318 318 316 313 312 312 312 313 313 313 313 312 312 313 314 314 314 313 312 312 313 313 313
335 336 336 336 336 338 340 340 339 339 339 338 336 334 333 332 331 331 330 330 329 326 328 329 328 327 324 321 321 316 314 315 315 312 316 322 322 317 316 315 312 310 313 315 316 316 317 315 314 314 313 312 312 312 311 312 315 313 314 315 321 320 319 319 316 312 312 312 312 312 313 314 313 312 312 313 314 314 313 312 312 312 312 313 313
335 335 337 337 336 337 340 340 341 340 340 339 337 335 334 333 332 331 331 330 328 327 327 328 326 328 327 325 324 322 320 317 313 309 310 314 319 319 316 315 312 310 310 309 312 314 314 315 314 313 313 312 310 310 310 311 316 315 319 320 321 321 322 318 315 313 312 311 311 312 313 313 313 312 312 314 314 313 312 311 311 312 312 313 313
334 336 337 338 338 337 339 340 340 340 340 339 338 337 335 334 333 332 331 330 329 328 327 328 327 326 328 325 324 323 320 317 317 317 312 311 314 316 316 316 313 311 310 309 308 309 310 312 312 312 312 311 310 309 309 309 309 311 315 321 321 322 320 316 314 312 312 310 310 312 312 313 313 312 313 314 313 312 311 311 311 312 312 313 313
333 336 336 338 339 338 339 340 340 340 340 339 339 339 336 334 333 332 330 330 329 329 328 327 328 326 326 325 324 322 320 319 319 317 311 310 312 314 315 314 312 312 311 309 309 308 308 309 310 311 311 311 310 309 308 307 307 308 313 320 321 322 321 316 315 313 313 309 309 310 312 312 312 312 313 314 313 312 311 311 311 312 312 312 312
332 335 337 337 339 340 339 340 339 340 340 340 339 339 337 336 335 333 332 330 330 329 328 328 329 328 327 326 324 321 319 320 318 317 315 314 312 312 314 314 311 313 313 310 309 308 308 307 308 309 308 309 309 308 308 307 306 309 312 318 321 322 320 316 316 314 313 311 308 309 310 310 310 311 313 314 313 311 311 311 311 312 312 312 311
333 334 336 337 337 339 339 340 340 340 339 340 339 339 338 337 336 335 333 331 329 329 327 328 329 328 327 327 325 324 323 321 320 318 316 312 311 311 313 315 315 314 313 314 311 309 308 307 307 308 307 308 307 307 308 307 313 313 316 319 321 322 320 317 316 313 313 311 310 309 309 309 310 312 313 313 312 310 310 311 311 311 310 310 312
334 333 334 335 336 338 339 339 339 339 339 340 339 339 339 338 337 336 334 332 331 329 328 326 327 328 328 328 327 326 325 324 323 321 319 316 316 314 313 312 313 314 314 312 313 311 310 309 308 308 308 307 307 307 309 310 311 318 317 318 320 322 320 317 315 313 311 313 312 310 310 311 312 312 311 311 310 310 310 310 310 309 309 312 313
333 333 334 334 335 336 337 338 338 338 339 339 339 339 339 339 337 336 335 333 332 330 328 327 328 328 328 329 328 327 327 326 324 322 321 320 317 314 314 312 312 312 314 313 312 314 313 310 308 307 308 307 308 308 308 310 310 318 319 317 319 320 319 317 316 312 311 310 311 311 310 310 310 311 310 309 309 309 309 309 308 308 310 311 312
333 333 334 335 334 335 337 338 338 338 339 339 339 338 339 339 338 336 335 335 334 331 330 329 328 329 329 328 328 328 327 326 325 323 321 319 315 316 314 311 310 312 311 311 312 312 311 311 308 307 307 308 308 307 308 309 310 319 319 314 316 317 316 316 315 313 314 313 311 312 311 310 310 310 310 309 308 308 308 308 309 310 311 312 312
334 335 335 335 334 334 335 337 338 338 338 338 338 338 338 339 338 337 336 335 334 333 331 330 329 329 328 328 328 328 328 326 325 324 323 321 320 317 315 312 309 307 309 310 309 311 312 311 310 307 307 308 308 308 308 308 311 317 318 312 310 315 314 313 314 315 313 314 314 312 312 311 311 311 310 309 308 308 308 309 310 311 312 312 311
333 334 335 335 334 334 335 336 337 338 338 338 337 337 337 337 337 337 336 336 334 333 332 331 330 329 329 328 328 328 328 327 326 325 323 323 321 319 317 315 313 309 305 307 307 309 312 310 308 308 308 308 308 308 310 311 310 316 317 307 306 310 313 311 313 315 315 316 314 313 312 310 310 310 310 309 309 309 310 311 312 312 312 312 312
331 333 334 334 335 334 334 335 336 337 337 337 337 337 337 337 337 336 336 336 334 333 332 331 331 330 329 328 328 328 328 328 326 325 324 322 322 321 320 318 316 313 306 303 305 307 310 311 308 308 308 307 308 308 308 307 311 315 310 304 303 304 310 311 310 314 316 314 313 313 313 312 312 311 310 310 310 311 312 312 311 311 312 312 312
332 333 333 334 334 335 334 334 335 336 337 337 337 337 336 336 337 337 337 336 334 333 333 332 331 330 329 329 328 328 328 327 326 326 325 324 322 322 320 320 319 316 313 311 309 307 307 309 309 307 306 307 307 307 307 306 313 313 307 303 302 303 308 310 308 308 310 310 310 308 309 310 312 313 312 311 311 311 311 311 311 312 312 312 313
333 333 333 333 334 334 334 334 335 335 337 337 337 336 336 336 336 336 336 335 334 333 333 332 331 330 329 328 328 328 327 326 326 325 325 324 324 322 321 320 319 319 316 311 308 308 310 309 308 308 307 306 308 307 307 305 311 312 305 302 302 306 309 308 308 306 307 307 306 308 310 309 309 310 311 310 309 309 309 311 312 312 312 312 310
334 334 333 333 333 333 334 334 335 335 336 337 337 336 336 336 336 335 335 335 334 333 332 332 332 331 330 329 329 328 328 326 325 325 325 324 324 323 322 320 319 318 317 312 311 312 307 307 307 307 307 306 307 306 304 304 309 313 302 301 303 310 307 304 308 307 306 305 305 305 307 308 307 308 309 310 311 312 312 312 312 311 310 309 307
335 334 334 334 333 334 334 334 335 335 335 336 337 336 335 335 335 335 335 334 334 333 332 331 332 331 330 329 329 329 328 326 326 325 324 324 324 323 322 320 319 317 316 314 312 309 304 304 303 304 304 306 304 305 304 303 305 307 304 300 301 305 305 304 304 307 306 305 304 304 303 303 304 308 310 310 310 310 312 308 306 306 307 307 305
336 335 335 335 334 334 334 334 335 335 336 336 336 336 335 334 334 335 335 334 333 333 332 331 331 331 330 329 329 329 328 327 326 325 325 324 323 322 321 320 319 316 315 314 309 308 304 301 302 303 303 305 304 304 304 302 303 305 302 301 302 305 305 304 302 302 305 306 304 303 303 302 302 302 303 304 303 302 303 302 301 301 303 303 300
337 337 336 336 336 335 334 334 335 335 336 336 336 336 335 334 334 334 334 334 333 332 331 331 331 331 329 329 329 328 327 326 325 325 324 324 323 322 321 320 318 316 313 313 308 305 302 300 301 301 302 303 303 303 304 304 304 305 303 301 301 304 305 303 302 302 303 304 304 303 303 302 301 301 300 301 301 300 301 300 300 301 300 301 300
337 337 337 337 336 336 335 334 334 335 335 336 336 336 336 335 334 334 333 333 333 333 332 331 331 330 329 328 328 327 326 325 325 324 323 323 322 321 321 318 317 316 312 310 311 306 301 301 301 301 302 302 300 302 304 304 303 303 302 301 300 301 302 304 302 301 303 304 303 303 303 303 302 301 301 301 301 300 300 300 300 300 300 300 301
338 338 337 337 336 336 335 335 335 334 335 335 335 335 336 336 335 334 333 333 333 333 332 332 332 330 329 328 327 326 325 324 324 323 322 320 321 320 319 317 315 314 312 310 309 306 303 301 300 300 301 301 301 300 303 301 300 299 299 299 299 299 300 301 303 304 305 305 304 304 303 303 302 302 301 301 301 301 301 300 300 300 301 301 301
338 338 338 337 337 336 336 336 335 335 335 335 335 336 336 336 335 335 334 333 332 332 332 331 331 330 329 328 327 325 324 324 323 323 321 319 318 317 317 315 313 311 309 308 307 307 305 303 300 300 299 301 299 298 300 301 300 299 298 298 298 298 298 298 301 304 305 304 302 303 303 303 302 302 302 301 301 300 300 300 300 301 301 302 302
338 338 338 338 337 337 337 336 336 336 335 335 335 336 336 336 335 335 334 333 332 332 331 331 330 329 328 327 326 325 324 324 324 322 320 318 317 315 315 314 311 309 308 307 306 306 305 302 299 299 300 299 299 299 298 300 301 299 299 297 297 298 298 298 300 301 303 304 303 303 302 301 302 302 301 300 300 301 301 301 302 303 303 302 301
338 338 338 338 338 337 337 337 336 336 335 335 335 335 336 336 335 335 334 333 332 331 330 330 329 328 327 326 325 324 324 324 324 322 320 318 315 314 312 312 309 308 307 306 305 305 304 302 300 298 298 299 298 298 298 297 297 296 298 297 296 296 298 299 299 300 300 302 301 301 302 302 302 302 301 301 302 302 303 303 304 305 304 302 299
339 339 339 339 338 337 337 337 336 336 335 335 335 335 335 335 336 334 334 333 332 331 330 329 328 328 327 326 325 324 323 324 321 320 319 319 315 313 309 309 307 307 305 305 305 303 302 302 301 299 298 297 298 297 294 294 295 296 296 296 296 296 296 297 298 299 301 299 298 299 299 300 298 299 299 300 301 303 303 305 305 305 303 300 299
339 339 339 338 338 337 336 336 336 336 336 336 329 321 323 334 335 335 334 333 332 331 329 328 327 326 326 325 325 325 322 320 316 312 310 311 315 316 311 307 308 306 305 304 303 303 303 301 301 299 298 297 297 297 296 295 295 296 295 295 294 294 295 296 296 295 300 298 297 297 297 299 299 298 298 299 301 303 302 301 301 301 301 299 299
339 339 338 338 337 337 337 336 336 336 336 335 320 313 312 316 331 335 334 333 332 331 330 328 326 325 324 324 323 323 321 320 317 309 307 306 306 307 308 309 311 308 304 304 303 303 302 302 301 299 299 298 298 298 298 297 297 298 296 295 294 295 294 294 294 295 298 297 296 295 296 296 298 298 298 299 301 302 300 301 301 301 300 300 300
339 339 338 338 338 337 337 337 336 336 336 324 314 310 309 310 317 333 334 333 331 331 330 328 327 325 324 322 321 321 321 320 319 314 310 306 304 303 302 302 303 304 305 306 304 301 301 301 299 300 298 298 298 297 296 297 297 296 297 296 295 295 293 294 291 293 295 299 296 294 295 296 297 298 297 301 302 301 302 301 300 299 299 299 299
340 338 338 338 337 338 337 336 335 335 335 321 311 309 308 307 309 322 334 333 331 330 329 328 327 326 324 322 320 319 320 319 319 315 313 310 305 303 303 303 303 300 298 299 302 306 303 302 301 299 299 298 297 297 299 299 298 298 296 296 295 295 295 294 293 293 296 296 294 294 293 295 298 297 297 300 299 299 300 300 300 299 299 299 299
339 338 338 337 338 337 337 336 335 336 335 323 310 308 307 306 306 313 334 332 331 330 329 329 327 326 324 322 320 318 317 317 316 313 312 310 306 305 304 304 304 306 301 298 298 300 303 304 301 300 300 300 300 299 301 300 299 298 297 297 296 295 295 296 294 295 296 298 296 291 292 293 295 296 295 296 297 297 298 298 298 299 299 299 299
339 338 338 337 337 336 337 337 336 335 336 319 309 307 306 305 305 309 332 333 331 330 330 329 328 326 324 322 320 319 316 315 314 311 310 307 305 305 303 303 303 303 302 301 301 301 302 301 301 302 301 301 301 301 302 301 301 300 300 299 298 298 297 295 294 295 296 297 295 295 294 293 292 293 293 294 296 296 296 297 298 299 299 299 298
339 339 339 339 337 336 337 336 335 334 336 315 309 306 305 304 304 317 329 332 330 329 329 328 327 326 323 321 319 317 314 314 309 303 306 307 306 304 303 302 300 299 301 306 300 302 304 303 301 301 300 302 301 302 302 302 300 300 302 299 298 297 296 294 295 292 293 296 296 295 292 291 289 293 291 292 292 294 296 296 298 299 299 298 298
335 338 339 338 338 338 336 336 335 335 335 320 307 306 304 303 305 321 328 331 330 329 328 328 327 325 323 320 318 316 313 313 304 298 299 304 306 304 303 301 300 299 300 298 296 298 300 299 298 298 298 298 298 298 298 298 300 301 299 298 296 296 295 293 293 292 293 290 295 297 294 292 291 292 292 291 292 293 295 297 296 298 298 298 297
325 328 331 336 339 338 336 336 336 335 335 326 308 305 303 301 310 323 328 330 330 329 328 327 326 325 323 318 319 316 313 311 299 297 297 304 306 304 302 300 299 299 298 297 297 294 294 293 294 295 295 297 297 297 297 297 297 301 300 298 297 295 295 293 290 291 288 291 292 297 293 291 290 291 291 290 290 290 293 295 296 297 298 297 297
327 327 325 327 332 337 338 337 327 332 335 328 307 304 301 301 310 325 328 329 329 328 327 326 325 324 323 317 315 315 314 308 296 296 296 304 307 304 303 301 300 299 299 298 297 294 294 295 293 296 295 297 299 299 300 297 298 303 301 300 296 296 293 292 291 288 291 291 291 297 296 291 292 291 291 291 289 290 290 293 294 295 295 295 296
Wind_Speed
6 5 5 6 5 5 5 6 5 6 4 4 4 5 5 5 5 4 3 3 3 3 3 3 4 4 6 5 5 5 5 5 5 5 4 4 5 7 12 11 10 10 10 11 10 11 11 10 10 9 9 9 9 9 9 9 9 9 9 9 9 9 9 8 8 8 8 8 8 9 10 10 10 10 9 9 9 9 9 9 8 8 8 7 7
6 6 7 6 6 5 5 6 6 6 5 5 5 5 6 5 5 5 4 4 3 5 5 5 5 5 5 6 5 6 5 6 6 5 5 4 4 5 11 11 10 9 10 10 10 10 10 10 10 9 9 9 9 9 9 8 8 8 8 8 7 7 6 6 6 5 6 6 6 7 8 9 9 9 9 9 9 8 9 9 8 8 8 9 7
7 7 6 7 7 6 6 6 6 6 5 6 5 6 5 5 6 6 6 2 5 6 6 6 6 5 5 6 6 5 5 5 5 5 5 4 4 4 7 11 10 10 10 10 10 10 10 10 10 9 9 9 8 8 8 8 7 7 7 6 5 4 4 5 6 7 8 8 7 6 7 8 8 8 9 9 9 8 8 8 8 8 8 9 8
7 7 8 7 7 7 6 6 7 6 6 6 6 6 5 6 6 5 2 2 5 6 6 7 7 6 6 6 6 5 5 5 6 5 5 4 4 4 5 5 10 10 10 10 10 10 10 10 10 9 9 9 9 8 8 8 7 6 6 4 3 3 4 5 5 4 5 6 7 7 7 7 7 7 8 9 9 8 8 8 7 7 8 8 9
7 8 8 8 8 7 6 7 7 6 5 6 6 6 5 5 5 2 3 2 3 3 4 5 6 6 6 6 6 5 5 5 6 5 5 5 4 5 5 4 4 10 11 11 10 10 10 10 10 10 9 9 9 8 8 8 7 6 5 3 2 2 4 5 5 5 4 5 6 6 6 7 7 8 7 8 8 8 8 8 8 7 7 8 9
7 7 8 7 8 8 8 8 7 7 6 5 6 5 6 5 3 3 3 4 4 4 5 5 5 5 5 6 5 6 5 6 6 6 5 5 5 5 5 4 5 4 4 10 11 11 11 10 10 9 9 9 8 8 7 7 6 5 4 3 2 3 3 3 4 4 4 4 5 5 6 8 8 8 8 8 8 8 7 7 7 7 8 8 9
8 8 7 8 8 8 8 8 8 7 6 6 7 6 5 6 4 3 3 3 4 4 5 6 7 7 5 5 6 5 5 6 6 5 6 5 5 4 4 5 5 4 4 4 8 11 11 10 10 9 9 9 8 8 7 6 6 5 4 3 2 0 1 1 2 4 3 4 4 5 6 7 8 8 7 7 7 7 7 7 7 8 8 8 8
8 8 7 7 7 7 7 7 8 6 6 6 6 6 5 3 4 6 6 4 5 4 3 5 5 5 5 5 5 6 6 5 6 6 5 5 5 5 5 4 5 5 4 4 5 6 12 11 10 10 9 9 9 8 8 7 6 5 4 4 3 3 1 1 2 3 4 4 5 6 7 8 8 7 7 6 6 7 6 6 7 7 8 8 8
8 8 7 7 6 7 7 7 6 6 6 6 7 6 5 4 4 3 8 6 6 5 4 4 5 5 5 5 6 6 6 6 6 5 5 6 5 5 5 5 4 6 4 5 4 5 9 12 11 11 10 9 8 8 8 7 7 6 5 3 3 2 2 2 2 3 4 4 5 6 7 7 7 6 7 6 6 6 6 7 7 7 7 8 8
7 7 7 7 7 7 6 7 6 5 6 5 6 4 5 6 5 1 4 7 5 7 6 5 5 5 5 5 5 5 6 5 5 5 6 6 6 7 7 6 5 5 5 5 5 5 4 9 12 11 11 9 9 8 8 7 7 7 6 4 4 4 2 2 2 3 3 4 5 6 6 6 6 6 6 5 5 5 6 6 7 6 7 7 7
7 7 7 6 6 7 7 7 6 5 5 5 4 3 5 3 6 4 1 3 7 6 7 7 6 5 5 5 3 4 4 3 4 5 6 7 7 7 6 6 6 5 6 5 5 5 5 4 5 4 6 11 10 10 10 9 8 8 8 7 6 5 4 3 3 3 3 4 5 6 6 5 5 5 5 5 5 5 6 6 6 6 7 7 7
8 7 7 7 7 7 7 6 6 6 6 6 5 5 6 5 4 5 5 2 2 4 4 5 4 3 2 1 2 3 4 4 4 6 6 6 7 6 7 6 6 6 6 6 6 5 5 4 4 5 4 7 11 10 10 10 9 9 9 9 8 7 5 4 3 3 3 4 5 5 5 4 4 4 5 5 5 5 5 6 6 6 6 7 7
8 8 8 7 7 7 7 7 6 6 7 8 7 6 5 6 6 3 6 4 2 3 4 6 7 2 2 1 0 0 1 2 4 4 6 7 6 7 6 6 6 6 6 6 6 6 5 5 5 5 6 5 6 9 10 10 9 9 10 9 9 7 7 6 4 3 3 3 4 4 4 4 4 4 5 5 5 5 5 6 6 6 6 7 7
9 8 8 8 7 7 7 8 7 7 7 7 6 6 5 4 5 4 1 4 4 6 6 7 2 6 5 1 0 1 0 0 1 2 4 6 7 7 7 8 8 7 5 6 6 6 6 6 5 5 5 5 5 4 4 5 7 11 11 10 9 9 8 7 5 4 3 3 3 4 3 3 4 4 5 5 5 5 5 5 5 5 6 6 7
9 9 9 9 8 8 8 7 8 7 7 7 7 7 7 7 7 7 4 0 1 4 8 6 6 3 3 5 2 3 3 2 1 2 2 4 5 6 7 7 9 7 7 6 6 6 6 6 6 6 5 6 6 6 5 5 6 9 12 11 10 10 9 8 6 5 4 3 3 4 3 3 4 4 4 4 5 4 4 5 5 5 6 6 6
10 10 9 9 9 9 8 8 8 7 8 8 7 8 7 6 6 6 6 5 3 5 5 5 5 9 4 3 3 3 2 7 6 3 2 5 6 5 5 7 8 7 5 7 8 7 7 6 7 7 7 7 6 6 6 6 8 11 13 12 12 11 10 9 7 5 5 3 3 3 3 3 4 4 4 5 5 4 4 4 5 5 6 6 6
11 11 10 10 9 8 8 9 8 8 8 8 9 9 8 8 8 7 8 7 7 4 5 5 5 6 8 5 2 0 5 2 3 6 2 3 4 6 6 6 7 8 8 9 7 7 7 7 7 6 7 7 6 6 6 6 6 5 8 12 13 11 10 10 8 5 6 4 3 3 3 3 4 3 4 5 5 4 4 5 5 5 6 6 6
11 11 12 10 10 10 8 9 9 9 8 8 8 7 7 8 9 9 9 6 9 6 7 5 5 6 4 2 6 6 5 3 4 5 2 4 3 5 6 6 6 8 8 8 8 8 7 8 7 8 8 7 7 6 7 7 6 6 6 7 13 13 11 9 7 6 7 4 3 3 4 4 4 4 5 5 5 4 4 5 6 6 6 6 7
11 11 11 11 10 10 10 9 9 9 8 8 8 9 9 9 7 8 9 7 6 8 10 9 3 6 5 4 1 0 6 6 6 2 1 2 3 5 5 6 6 6 8 8 9 8 8 8 8 9 8 7 7 7 6 7 8 9 11 10 12 12 10 7 8 7 6 5 3 3 4 5 5 4 5 5 4 4 5 6 6 6 6 7 7
12 12 12 12 11 11 11 9 9 9 9 9 10 9 7 7 8 9 8 8 9 9 9 8 11 8 7 6 4 1 3 3 4 7 4 4 5 2 2 5 5 7 8 9 8 9 9 8 8 7 7 8 7 7 8 7 6 7 7 12 13 12 12 8 7 6 6 5 4 4 4 5 5 5 6 5 4 4 5 6 6 6 7 7 8
12 12 12 12 12 12 11 11 10 10 9 9 9 9 10 10 9 8 9 8 8 8 8 10 9 8 7 7 4 4 3 3 2 4 3 3 3 5 6 1 3 6 7 7 7 8 9 10 9 8 7 8 8 8 8 7 7 7 7 13 14 14 13 10 7 5 5 6 4 4 4 5 5 6 6 5 4 4 5 6 7 7 7 7 8
11 12 13 13 13 12 12 13 12 10 9 10 10 10 10 10 11 11 10 10 8 8 9 8 9 7 8 8 8 5 2 3 2 4 1 3 5 5 6 7 7 8 7 8 9 8 7 7 7 6 7 7 7 8 8 8 7 7 9 14 15 14 13 12 8 7 8 7 5 4 5 6 6 7 6 5 5 5 6 6 7 7 7 8 8
11 11 12 13 13 13 12 12 11 10 10 10 10 10 10 10 10 10 10 11 9 9 8 7 8 8 8 8 9 10 10 9 7 6 5 3 2 4 3 7 10 8 7 10 8 8 7 6 7 7 7 7 6 7 8 8 8 8 11 14 15 14 14 12 9 9 9 8 6 4 5 7 7 7 6 5 5 6 6 7 7 7 7 8 8
11 11 12 13 12 12 12 12 11 11 11 10 10 10 9 9 9 9 9 10 9 9 8 8 9 8 9 8 8 8 8 7 6 7 7 6 7 6 6 3 4 6 3 2 5 5 7 8 7 7 7 7 7 7 7 7 8 13 10 13 14 14 14 12 11 11 10 7 6 5 6 7 8 7 6 5 6 6 7 7 7 7 8 9 9
13 14 14 15 12 12 13 12 12 12 11 10 10 10 9 9 9 10 10 10 10 10 9 10 10 10 10 9 8 8 9 7 6 7 6 5 6 6 6 3 6 5 7 3 4 5 8 8 7 6 7 8 7 7 7 7 7 10 11 10 15 13 13 14 12 11 10 9 7 7 7 8 8 7 6 6 6 7 7 7 7 7 8 9 10
14 15 14 14 12 13 12 12 12 11 11 11 11 10 10 10 10 11 11 10 9 11 11 10 9 10 8 8 9 9 9 7 7 6 7 6 6 7 5 2 3 6 2 2 2 2 4 6 6 6 7 8 8 7 7 7 7 10 14 9 12 13 13 12 13 12 11 10 9 8 9 9 8 8 7 7 7 7 8 8 8 8 9 9 10
14 13 12 14 14 12 13 13 12 12 11 11 11 10 10 10 9 11 10 9 10 11 10 10 10 10 9 9 9 9 9 8 7 8 7 8 7 6 6 5 2 3 5 3 2 6 6 3 6 6 8 8 8 8 8 7 8 12 13 8 7 13 12 13 11 12 12 13 10 9 9 9 9 9 8 8 8 9 9 9 9 10 10 10 11
11 11 13 14 14 13 13 13 12 12 12 12 12 11 11 11 10 10 11 8 10 12 10 10 11 11 11 9 8 10 9 8 8 8 7 7 7 6 7 7 7 6 2 5 4 6 4 4 1 6 7 8 8 8 8 9 7 12 13 7 7 8 12 12 12 13 14 13 10 9 9 9 9 9 8 8 9 10 10 10 10 11 10 11 13
11 11 12 13 13 13 13 13 13 12 12 12 12 11 11 11 11 11 12 10 10 11 10 10 11 10 9 10 10 9 8 7 7 7 7 6 7 7 8 9 7 7 5 6 6 7 5 6 6 6 8 7 7 6 7 7 8 10 8 7 7 6 10 13 13 13 14 12 10 10 11 10 10 10 10 10 10 11 11 11 11 11 12 13 14
12 11 12 13 13 14 13 13 12 12 13 12 12 12 12 11 11 11 11 9 10 9 10 10 10 9 9 9 8 8 7 7 8 7 7 7 7 7 7 7 7 8 7 7 7 6 4 4 5 4 5 7 6 6 6 7 9 12 8 8 7 7 11 14 14 14 13 11 11 11 11 11 12 12 11 11 11 12 12 12 12 12 13 15 15
11 11 12 13 13 13 13 13 12 13 12 13 12 12 12 11 11 11 10 10 10 11 10 10 9 8 10 10 9 9 7 8 7 7 6 7 7 7 7 7 7 7 7 6 5 4 5 6 6 5 6 7 7 6 5 5 8 11 8 7 7 9 11 11 15 14 13 12 12 11 11 11 11 12 12 11 12 14 14 15 15 14 14 14 15
13 13 12 13 13 14 13 13 13 13 13 12 12 12 11 11 11 11 10 11 11 12 10 9 8 9 10 11 11 10 8 6 7 7 7 7 7 7 7 7 7 7 7 6 7 8 4 5 5 6 6 7 6 7 5 4 6 11 7 7 8 8 8 7 12 14 13 13 13 12 11 11 11 11 11 11 12 13 15 15 14 13 13 14 15
12 13 14 14 14 14 13 13 14 14 14 13 12 11 12 12 11 12 11 12 13 11 10 10 9 10 11 12 11 11 8 8 8 7 7 8 7 7 7 7 7 6 7 7 7 7 3 1 3 5 3 6 4 6 8 6 6 6 6 5 5 6 7 7 7 11 13 13 13 12 12 12 12 11 11 11 12 13 14 13 13 13 14 15 16
13 14 15 13 13 14 13 14 14 14 14 14 13 12 13 13 12 10 11 13 13 12 10 11 11 10 10 11 11 11 9 10 8 9 8 8 8 7 7 8 8 7 6 7 7 6 7 1 0 1 3 4 5 4 9 9 6 5 7 5 5 6 8 7 6 6 12 13 13 13 13 13 13 13 13 13 13 13 13 13 14 14 15 15 16
12 13 14 14 14 14 14 13 13 13 14 14 13 13 14 14 14 13 12 13 14 13 13 13 12 11 10 11 12 10 7 9 9 9 8 8 7 8 9 7 7 7 7 7 6 6 6 4 2 3 4 5 6 7 7 7 7 9 8 7 7 6 5 6 6 5 8 12 13 13 14 14 14 14 14 13 13 13 13 13 14 15 15 15 15
12 12 13 13 13 13 14 14 14 14 14 14 14 14 15 14 14 14 13 13 13 14 14 13 12 12 13 12 11 11 9 10 10 9 8 7 8 8 7 7 7 7 7 7 7 6 5 6 3 6 5 7 3 3 5 5 6 6 7 7 5 6 5 5 6 6 8 12 13 13 14 14 14 15 14 13 13 13 14 14 15 14 14 14 15
12 11 11 12 13 13 14 15 15 15 15 15 14 14 14 13 14 13 14 13 14 14 14 14 13 13 13 13 12 10 10 11 9 9 8 9 8 7 8 7 7 7 5 7 7 5 6 7 5 3 2 3 1 3 6 7 2 3 3 5 6 7 5 4 4 6 9 10 10 12 13 14 14 14 13 12 12 13 14 15 15 13 15 16 16
13 12 13 12 12 15 15 15 15 15 14 14 15 15 14 13 13 13 13 14 14 14 13 13 13 13 13 13 11 11 11 12 12 10 8 10 7 8 8 7 7 6 7 5 5 5 6 7 7 4 2 6 2 3 6 6 7 5 3 4 2 3 4 4 5 5 4 4 4 5 8 10 12 12 11 11 13 14 14 15 12 14 16 15 14
13 13 13 14 13 14 15 14 14 15 14 13 13 13 13 14 14 14 14 14 13 13 13 13 13 13 13 12 11 12 13 13 12 11 10 8 8 8 9 8 7 7 7 7 6 6 6 5 3 5 7 4 3 5 3 5 5 5 7 4 5 4 3 5 6 4 3 4 5 7 7 6 6 6 9 12 13 15 14 11 13 15 14 13 11
13 14 15 15 14 14 14 14 14 13 13 12 13 13 14 14 14 14 14 14 14 13 13 13 13 13 13 12 12 12 13 13 12 10 9 10 7 7 7 7 7 7 7 6 5 6 6 5 6 6 4 6 2 1 2 4 2 1 3 5 8 6 6 4 6 4 2 2 4 4 4 5 6 7 9 10 11 11 12 12 13 13 12 10 10
12 14 14 14 14 14 14 14 14 13 13 13 13 13 14 15 14 15 15 14 14 13 13 12 12 12 12 12 12 12 13 14 15 12 12 11 9 9 7 7 7 8 6 6 7 6 6 7 5 3 6 5 6 6 6 6 8 9 6 4 5 5 3 3 3 2 3 3 3 2 2 4 3 4 3 4 5 5 7 9 8 10 11 9 10
14 13 13 14 14 15 15 15 14 12 12 12 16 21 18 14 14 13 12 13 14 13 13 12 12 12 13 12 12 17 17 17 15 15 15 15 15 12 10 9 9 8 8 7 7 7 7 8 7 8 7 8 8 8 7 6 4 3 5 5 6 3 1 1 3 3 2 3 2 2 4 1 2 3 1 4 5 4 5 3 5 7 9 10 10
15 14 14 14 14 15 16 15 15 14 13 13 21 20 20 21 15 13 14 13 13 13 13 13 13 12 11 11 10 13 15 14 14 17 16 16 16 15 15 16 13 12 9 9 8 8 9 8 7 7 9 9 8 8 8 7 5 8 7 7 6 5 4 4 4 2 1 4 1 0 3 1 2 3 3 3 4 4 3 5 8 11 11 11 11
14 13 14 15 16 15 14 15 15 15 14 18 21 20 20 21 19 15 12 12 12 13 13 13 12 11 11 10 9 8 10 12 10 11 13 16 16 15 15 16 16 16 16 13 10 7 7 8 8 9 8 9 9 7 6 5 7 5 5 6 6 6 5 4 4 4 3 1 3 1 5 2 3 2 2 4 4 3 5 7 10 11 11 12 12
13 14 15 16 16 15 15 16 16 16 15 19 20 20 21 21 22 19 12 12 12 13 13 13 12 12 11 10 10 8 8 15 12 10 10 10 12 15 15 15 15 16 15 16 16 14 10 10 10 9 10 8 8 8 8 9 7 8 5 6 5 6 5 6 6 4 2 3 2 0 3 4 0 1 2 6 5 4 5 7 11 10 11 12 12
14 15 16 17 16 16 16 16 16 15 16 19 20 21 21 22 22 19 14 13 12 13 14 13 12 13 12 12 11 10 7 9 9 10 9 8 8 6 6 6 7 10 12 14 14 14 13 11 10 11 9 7 10 9 9 7 10 9 8 8 6 5 6 7 5 6 2 1 3 2 1 4 0 2 2 5 3 4 5 8 11 11 11 12 12
15 15 16 17 16 17 17 16 15 16 15 20 20 22 21 22 22 19 15 12 12 12 13 14 14 14 13 12 12 12 10 10 9 11 10 9 8 8 7 7 7 7 7 7 7 7 8 6 9 9 10 9 8 9 10 8 11 10 11 10 11 8 4 1 2 1 2 1 3 3 4 4 1 1 3 5 4 5 6 7 9 9 10 11 11
13 14 15 16 17 18 17 17 16 17 16 20 20 21 22 21 21 14 14 14 13 13 13 13 13 12 12 12 12 11 10 10 12 17 14 11 10 9 9 6 5 4 5 3 3 7 9 9 8 9 8 11 11 10 10 11 6 5 5 6 6 5 6 3 6 1 1 1 3 4 1 2 1 2 2 4 2 4 6 5 7 9 10 10 9
13 14 15 15 15 16 17 17 18 17 16 18 20 21 21 22 17 13 14 14 13 13 14 13 13 12 12 13 12 11 11 10 14 17 17 15 10 10 9 8 6 5 7 1 2 1 6 10 11 11 11 14 15 13 15 16 12 10 8 8 6 6 7 5 3 1 4 1 2 4 4 1 2 3 3 2 1 3 4 5 5 7 10 9 9
12 15 13 14 14 15 17 18 17 17 16 17 20 20 21 21 20 15 14 13 13 13 12 12 12 12 14 19 16 13 13 11 16 18 18 16 11 10 9 9 8 8 6 2 1 2 5 5 4 5 10 14 15 15 16 16 16 14 11 11 9 7 7 7 6 5 3 2 4 5 3 4 1 0 1 4 3 3 5 5 5 7 7 6 9
14 13 9 12 14 14 15 17 19 19 16 15 17 19 20 22 20 14 14 13 14 13 12 12 11 11 11 14 21 17 15 15 20 19 20 16 11 11 12 11 11 11 9 7 6 5 3 4 3 4 2 5 7 8 10 17 18 14 11 10 8 8 8 7 5 2 1 4 5 6 4 2 1 1 1 3 2 5 3 4 5 6 3 4 5
Wind_Direction
183 181 177 188 194 198 200 209 212 218 205 209 201 211 223 223 232 235 205 206 198 193 184 181 159 156 151 155 145 139 139 139 139 139 143 147 148 156 154 144 141 142 142 139 139 137 136 135 132 129 130 129 121 118 116 112 107 100 94 88 82 76 71 65 59 54 49 46 43 41 41 36 35 35 30 24 21 17 21 27 23 16 2 19 22
180 177 175 186 196 202 207 213 214 219 205 208 213 211 217 221 238 239 224 209 175 193 190 177 172 168 164 153 152 150 151 146 147 150 151 149 155 155 156 151 147 146 144 144 143 143 141 138 137 137 133 130 129 127 123 119 111 103 96 89 81 74 66 59 54 49 45 46 49 39 35 33 31 31 28 19 18 16 20 20 18 14 5 4 18
180 174 184 182 191 200 210 212 224 221 210 213 207 215 215 215 220 230 229 194 192 195 191 180 174 170 168 155 153 150 153 149 147 148 148 150 150 149 157 159 151 148 148 147 147 148 146 142 143 142 137 134 134 133 127 121 115 108 100 93 84 72 58 54 51 47 46 39 36 36 33 29 25 25 23 15 11 9 14 13 10 11 6 358 2
179 178 183 182 190 201 207 208 222 221 212 214 210 218 214 221 227 233 236 166 204 202 197 174 171 164 158 156 149 156 160 155 151 151 146 145 149 148 144 154 157 152 152 151 154 153 149 151 150 147 143 137 137 135 132 127 122 115 107 101 89 67 54 50 47 38 48 37 28 29 30 21 15 11 15 11 5 5 10 10 10 13 6 356 6
189 181 183 183 189 199 203 214 220 216 209 216 217 218 224 230 245 255 213 154 159 158 148 153 154 156 156 152 150 164 165 156 152 148 153 149 148 144 149 149 153 159 159 159 159 158 156 156 155 152 146 143 139 140 136 133 131 128 123 113 106 79 62 52 42 27 37 31 19 22 23 13 9 2 13 8 3 6 12 11 11 12 9 5 9
186 188 178 179 187 195 201 214 221 217 208 210 220 217 224 222 224 192 202 174 175 158 137 137 131 133 150 144 157 173 168 160 157 158 150 153 150 149 155 148 148 152 163 165 165 163 162 162 161 157 154 150 150 147 146 149 146 144 144 139 103 75 55 43 32 10 19 15 6 8 13 6 3 1 12 6 3 9 12 9 9 12 13 13 11
187 183 181 179 181 192 203 215 214 211 202 208 213 217 217 225 161 166 146 157 155 160 157 151 150 157 153 151 172 178 176 162 156 155 156 153 151 158 155 154 149 158 171 170 172 169 167 170 167 166 164 163 167 166 166 171 170 165 165 157 135 108 302 323 1 354 4 358 354 0 8 4 357 2 11 4 6 8 12 9 9 16 13 14 13
184 181 180 188 189 193 201 214 220 197 201 211 211 210 204 169 185 157 144 155 151 147 133 145 150 154 152 163 174 181 178 167 165 157 159 151 162 163 161 158 164 166 172 179 174 178 174 175 175 173 169 175 177 179 182 184 188 185 193 206 223 235 249 331 341 338 343 351 352 357 5 358 353 2 3 3 9 6 9 13 13 14 15 16 13
181 177 177 188 197 198 203 209 203 179 179 193 200 201 164 159 176 197 153 156 161 149 139 147 152 160 164 171 176 178 184 182 175 162 151 164 169 168 164 172 178 176 167 182 180 191 179 181 180 179 180 185 188 189 192 195 201 196 198 211 222 236 247 262 307 319 325 338 343 353 359 353 354 2 356 2 7 1 10 17 11 13 13 16 12
183 173 177 189 193 195 202 208 198 169 163 173 192 168 153 152 151 185 164 139 156 156 156 155 153 156 169 178 180 180 188 189 179 161 165 172 176 179 183 174 179 177 170 183 190 189 190 187 185 184 185 188 194 200 198 203 206 206 202 202 225 239 273 296 293 304 313 334 342 347 353 347 357 355 348 360 1 360 13 13 6 11 14 13 9
184 176 173 188 192 194 193 205 195 171 162 172 172 154 139 146 147 135 127 156 158 170 165 158 157 153 165 181 181 189 193 199 179 178 182 183 183 182 167 180 183 176 178 186 191 192 195 191 181 181 190 195 202 210 211 210 211 218 213 214 221 236 240 259 281 297 314 331 342 342 345 349 347 347 344 355 353 355 13 8 2 6 12 7 6
187 182 175 183 190 191 192 197 196 169 171 179 185 173 165 144 144 142 139 109 94 142 140 132 96 100 125 135 187 189 216 220 203 195 188 182 185 169 181 182 184 181 185 189 188 195 196 191 184 182 190 205 207 217 216 218 216 226 226 224 226 227 236 250 258 283 306 319 332 335 336 345 339 338 341 346 347 352 6 4 358 3 4 2 2
190 184 184 186 191 187 188 199 196 181 179 191 187 183 176 162 151 144 145 139 143 147 151 134 129 80 33 45 24 205 226 197 223 194 181 183 175 176 179 175 192 184 192 187 190 195 198 191 191 186 193 197 211 219 219 221 215 222 230 227 227 225 234 242 250 274 292 313 326 330 328 338 333 335 332 344 343 349 2 356 351 360 358 357 357
190 191 189 189 191 187 189 198 195 191 186 185 183 172 158 156 151 132 123 155 167 166 161 127 151 164 153 176 350 327 314 356 280 221 171 172 175 178 176 185 190 194 185 186 194 198 199 194 189 194 196 197 203 219 231 219 221 222 230 232 231 230 231 236 241 253 280 306 316 319 325 328 324 328 329 338 336 346 355 345 348 353 353 350 352
191 192 193 195 194 187 191 196 197 186 176 181 185 176 171 170 173 164 155 100 134 176 173 179 152 128 109 105 195 189 303 332 291 267 182 170 167 181 183 186 192 191 190 186 194 200 202 194 191 195 199 202 202 206 211 215 220 231 230 235 235 232 232 236 238 254 282 301 308 301 315 316 313 324 322 326 326 341 345 338 340 347 346 346 344
192 192 197 198 195 192 188 193 196 189 182 181 189 194 175 175 176 176 155 163 183 193 200 183 139 137 154 177 183 123 258 245 227 264 226 175 171 196 184 191 189 188 185 197 200 198 202 192 197 196 200 205 204 202 203 211 222 226 230 233 240 234 234 235 237 255 270 282 285 295 313 306 303 316 316 313 315 336 332 334 335 340 338 339 341
191 193 196 198 197 194 188 193 190 191 185 186 191 200 193 180 176 171 180 174 182 180 204 205 189 193 138 118 64 132 221 233 164 260 217 212 200 185 197 198 183 181 192 207 203 201 192 195 203 201 203 207 210 206 204 212 215 219 229 231 231 230 230 235 233 245 262 268 280 300 300 302 303 303 303 300 310 329 330 327 333 331 332 336 335
192 194 196 196 199 197 192 190 190 189 191 192 191 195 198 185 184 178 185 193 173 168 191 219 203 216 225 181 155 170 181 203 124 246 271 231 205 189 194 208 198 179 194 200 201 204 197 201 198 205 205 205 207 206 207 210 208 211 215 228 228 225 220 226 225 239 255 261 275 295 297 295 295 294 290 294 310 325 323 326 325 325 327 329 330
194 194 196 196 197 198 197 196 192 192 191 187 192 196 197 197 182 184 189 178 165 179 188 193 205 248 229 242 208 209 150 128 204 90 229 267 238 208 216 211 212 201 196 202 202 199 206 204 199 203 207 204 202 207 209 216 212 208 212 212 221 220 207 200 218 236 253 257 269 282 291 289 285 287 282 290 312 318 318 318 317 321 324 326 328
191 196 196 194 196 198 199 199 197 196 192 195 196 195 192 197 190 194 183 182 183 186 189 183 189 207 205 228 250 138 195 119 147 175 165 173 234 270 273 215 210 223 213 207 201 200 201 209 206 200 204 206 200 201 208 213 216 215 215 211 212 210 202 185 210 238 255 259 262 274 283 282 284 281 279 290 310 313 311 311 314 318 322 323 326
194 193 195 193 194 198 198 201 201 200 197 200 198 193 193 186 188 193 194 193 194 196 180 193 198 200 177 225 217 221 204 218 165 141 141 168 247 202 216 250 232 242 239 230 221 207 200 202 205 201 200 204 197 198 204 206 210 213 213 208 207 202 197 191 193 201 248 252 260 266 274 281 280 277 279 293 302 310 306 309 312 315 320 324 326
196 196 194 194 194 195 198 200 201 200 198 201 198 196 198 194 188 191 194 195 198 194 195 194 199 197 195 189 196 206 212 243 211 191 207 175 185 208 202 189 214 233 216 231 231 224 214 204 200 201 203 205 196 193 200 200 202 204 211 207 203 196 192 194 189 199 224 235 241 253 272 276 278 277 281 289 303 305 306 301 307 316 322 326 324
191 197 197 194 197 196 197 199 198 198 199 200 201 198 200 199 194 190 193 196 196 197 201 199 195 199 200 192 200 197 200 201 200 192 174 176 191 250 214 206 213 236 229 219 224 225 219 207 203 202 201 204 194 189 194 200 194 201 198 201 199 191 191 192 188 200 218 223 231 241 265 271 269 272 278 291 297 299 301 304 310 319 325 323 321
192 194 198 197 195 199 198 197 198 198 201 201 201 201 197 198 199 197 197 199 199 199 199 195 194 201 205 202 206 206 211 211 198 180 185 199 185 207 208 208 267 248 271 202 223 223 227 218 211 198 198 200 195 190 191 189 198 199 190 198 195 190 189 192 190 203 213 219 222 226 246 260 267 274 284 291 296 296 299 305 312 323 320 316 316
195 196 198 195 195 197 198 198 199 200 199 198 202 199 196 196 200 202 202 197 199 198 201 205 195 195 204 206 205 206 213 209 180 183 196 179 181 204 232 188 203 228 242 182 229 216 218 228 209 195 191 198 198 191 188 186 193 197 185 196 191 190 189 195 194 202 210 216 214 218 242 257 268 275 281 284 286 295 299 305 312 306 299 300 304
192 197 194 193 197 200 198 201 200 197 197 198 199 200 197 197 200 203 205 204 197 199 206 207 205 210 202 201 209 212 216 199 197 183 186 174 202 207 203 229 220 233 295 211 238 186 257 226 217 197 192 195 199 190 186 185 190 196 188 183 190 187 189 197 200 202 210 215 213 210 231 247 257 267 274 279 285 290 292 293 291 289 288 285 290
195 195 186 193 198 197 200 201 199 197 195 196 199 199 199 199 202 206 206 202 200 199 205 203 207 208 206 207 209 213 214 204 193 205 189 195 192 195 182 203 242 264 253 246 275 222 228 230 202 194 197 194 196 194 187 185 190 191 186 176 182 188 191 200 202 206 214 218 210 212 226 240 249 254 260 267 273 276 277 279 283 284 285 284 286
193 184 193 193 195 197 199 203 199 198 197 196 196 198 197 199 203 204 208 200 199 201 205 202 210 205 206 206 204 215 209 203 200 202 198 196 197 189 188 197 202 246 256 256 257 257 224 223 213 207 197 195 199 193 189 179 186 189 179 169 176 191 197 201 207 211 217 220 215 221 228 235 242 247 250 253 261 268 271 275 279 282 283 281 282
190 190 191 196 196 196 198 200 200 200 200 199 197 198 196 200 202 204 209 202 198 203 200 203 210 204 206 203 207 212 209 202 202 200 195 190 195 193 191 194 191 206 211 220 237 230 261 200 207 223 201 189 188 191 178 185 183 175 172 173 177 186 201 203 210 218 221 221 222 229 232 234 237 238 245 251 259 264 270 274 276 277 278 279 280
190 190 192 195 199 198 198 199 199 198 201 200 199 198 196 202 204 206 208 199 203 203 203 202 204 200 206 207 210 216 209 199 206 201 193 193 193 198 201 203 180 202 209 224 254 200 228 248 208 215 190 190 180 183 185 183 183 174 168 171 178 191 204 206 212 218 223 222 225 231 235 239 244 247 251 256 260 266 270 272 272 272 273 276 279
189 188 191 196 198 201 200 198 196 199 199 202 199 198 197 202 203 206 204 201 203 205 205 200 203 195 203 208 209 217 205 205 204 202 204 197 202 196 205 197 200 199 196 188 250 272 191 211 233 217 184 189 176 170 175 173 181 173 167 171 185 199 200 210 214 218 221 224 229 232 236 242 246 249 252 255 260 264 268 271 272 274 274 276 278
193 188 190 196 198 201 201 199 198 197 198 200 198 198 195 203 200 203 202 200 205 206 205 202 201 200 203 209 209 211 206 201 205 204 205 209 203 200 201 199 200 198 176 181 214 252 229 200 219 226 193 173 163 161 174 164 183 175 166 175 192 194 203 217 218 218 220 225 231 232 236 241 245 249 253 255 255 258 264 267 270 274 276 276 276
189 187 193 196 198 202 200 201 201 199 198 197 197 197 197 200 201 201 198 200 204 207 202 203 205 201 206 210 212 212 200 202 210 207 208 208 205 207 203 199 202 188 173 184 209 246 297 225 219 216 177 140 163 178 165 168 166 176 170 187 186 191 203 211 216 219 221 226 231 233 234 239 244 248 251 254 259 264 270 275 278 279 279 278 278
190 192 194 195 197 200 201 204 203 202 200 199 196 197 201 201 200 199 201 200 204 205 200 206 204 205 205 210 214 211 201 209 208 210 206 202 202 203 205 199 203 192 192 174 203 193 230 294 246 55 136 173 160 179 172 168 182 170 180 190 198 198 202 208 216 228 223 227 231 232 234 238 242 245 251 257 263 268 272 276 278 278 278 279 282
196 197 195 194 196 197 203 205 204 203 202 201 198 198 203 201 200 200 201 201 203 203 204 207 205 203 204 210 214 205 199 209 212 213 203 204 200 203 207 198 200 196 194 191 158 198 191 232 200 175 180 180 178 183 185 185 170 171 182 197 201 205 209 197 212 232 230 226 229 231 234 239 241 244 248 253 261 268 274 276 276 278 280 285 291
200 201 197 195 193 195 201 204 204 205 204 203 201 202 203 201 202 202 200 202 204 206 206 206 204 202 207 209 212 202 198 206 211 211 210 207 204 207 208 205 201 199 193 192 189 158 185 178 220 194 195 170 218 164 163 149 153 175 194 201 200 208 210 200 210 227 237 231 228 230 235 238 241 244 246 250 259 267 273 276 279 282 290 295 294
205 200 200 196 196 196 200 204 205 205 206 203 201 203 205 204 204 203 203 204 205 207 207 206 205 205 206 209 208 198 196 206 210 212 208 209 209 204 209 204 203 198 187 190 190 159 157 185 191 230 178 179 132 141 159 151 146 190 216 203 202 212 224 229 222 233 244 242 237 238 240 242 245 246 249 254 260 266 270 275 281 296 297 292 291
204 202 200 199 200 201 204 206 206 207 206 203 204 204 204 204 205 206 205 205 207 207 207 207 206 206 208 208 204 196 197 203 209 209 205 208 202 203 207 205 202 183 183 190 179 182 175 183 166 164 194 175 147 153 186 170 161 181 216 243 266 246 228 263 246 238 232 221 223 237 244 248 250 252 255 257 262 266 270 276 297 292 285 286 289
203 204 203 202 202 205 207 206 207 207 206 205 205 205 204 204 205 206 207 207 206 207 209 207 207 207 208 206 202 198 201 205 206 205 203 202 198 204 200 197 193 180 184 183 180 179 179 164 189 183 170 209 166 169 202 179 177 173 184 210 246 247 224 210 255 264 222 231 230 228 235 242 243 237 240 248 255 261 273 289 282 280 281 284 291
206 206 205 204 204 204 207 206 208 206 205 205 207 207 206 204 205 208 207 206 206 207 208 207 206 207 206 205 202 200 203 204 205 204 193 199 193 200 199 186 183 181 185 183 181 177 169 177 173 178 195 169 204 51 75 105 126 246 211 171 202 226 230 228 216 217 267 208 260 256 250 242 256 252 253 257 266 274 273 271 274 271 279 287 293
208 209 208 206 205 206 208 206 205 202 203 206 207 207 206 206 206 208 207 207 205 206 206 207 208 208 207 205 205 203 203 203 200 195 195 189 181 193 195 184 183 184 181 183 185 173 178 171 188 161 164 175 190 159 154 173 185 193 194 170 196 215 207 200 258 240 195 192 228 305 288 195 208 244 255 276 271 268 266 251 261 281 280 292 307
210 208 208 207 208 208 209 209 205 201 204 207 210 208 204 203 205 208 206 207 206 204 203 204 208 210 208 205 207 204 202 199 193 193 192 191 190 186 180 184 182 181 181 181 183 186 173 180 187 169 176 191 191 188 182 200 171 124 133 168 175 204 92 219 307 281 199 137 142 233 270 260 168 279 330 276 273 247 258 294 276 260 281 300 308
212 210 207 207 209 211 210 209 207 205 206 209 210 206 205 203 202 205 205 207 205 203 203 202 206 207 211 209 206 204 202 200 195 194 194 195 194 194 184 186 182 177 178 183 194 183 180 192 183 178 184 189 201 192 190 176 167 170 174 171 167 148 169 178 224 307 267 129 114 100 305 282 163 222 243 243 278 299 275 256 259 272 289 304 303
213 210 209 211 212 211 212 212 211 209 210 211 206 203 202 203 201 203 204 205 203 205 203 203 204 203 206 205 204 201 200 199 194 194 198 198 196 196 191 192 193 191 182 180 181 184 188 186 184 193 177 192 193 184 188 159 177 168 163 155 164 166 170 171 173 190 250 136 131 148 273 270 204 198 301 275 266 253 254 256 269 278 291 299 303
212 211 211 212 214 212 212 213 214 213 215 210 203 199 200 201 202 201 204 203 201 205 203 201 202 203 203 203 203 202 201 195 190 186 187 198 203 198 195 195 197 196 197 195 182 181 182 186 186 191 191 182 182 200 190 180 162 168 159 168 177 168 170 168 208 218 268 182 100 143 250 273 92 170 260 272 254 256 276 275 270 279 292 295 302
212 212 212 213 213 212 213 214 215 218 217 212 199 198 200 200 199 199 207 201 203 204 203 201 200 203 202 201 199 201 191 185 186 180 183 183 181 189 195 197 204 211 203 200 200 194 185 187 181 192 207 177 190 190 194 161 157 175 168 185 172 162 176 197 202 190 240 170 167 161 317 289 269 152 261 271 259 280 266 266 273 280 286 292 300
214 213 212 212 213 214 214 212 215 218 221 211 196 198 199 196 196 195 207 203 203 205 205 203 200 199 198 199 199 195 186 182 182 177 172 171 171 180 183 193 205 198 193 201 200 193 200 203 190 196 191 196 196 183 177 180 180 179 177 179 181 177 160 125 86 20 326 239 146 121 231 266 295 114 254 263 288 282 259 270 275 279 285 292 301
220 218 217 213 212 213 212 211 214 219 222 211 198 197 195 195 188 192 205 207 205 205 206 205 203 198 194 195 194 191 184 185 180 174 172 162 169 174 184 191 191 198 210 216 225 214 196 193 196 197 190 191 189 182 176 180 172 129 96 74 88 104 126 130 204 317 283 274 183 139 186 275 229 155 250 269 310 292 295 299 293 294 288 291 302
263 234 220 214 215 213 211 212 213 217 221 212 199 196 192 187 175 196 203 208 208 206 207 204 202 198 193 193 191 185 181 186 174 173 169 159 170 176 179 181 184 185 210 254 32 123 202 200 200 199 188 189 188 183 176 171 158 148 124 125 154 144 136 174 245 285 249 287 235 156 142 260 244 167 270 284 308 281 290 292 295 293 293 302 323
241 268 265 245 224 215 213 213 211 215 220 214 198 195 188 177 179 192 201 205 212 208 209 203 201 201 197 191 188 184 181 182 168 173 168 166 171 176 174 172 179 199 210 209 102 40 65 90 111 160 175 176 180 177 173 166 156 150 147 169 181 148 168 175 203 217 272 315 256 161 112 217 270 114 272 303 343 267 261 269 283 292 304 343 318
214 219 234 270 263 241 225 214 211 212 219 217 192 191 183 179 184 193 196 205 209 212 206 206 202 200 199 194 192 186 182 171 169 173 172 173 177 174 179 177 192 199 194 176 162 139 133 112 88 97 71 148 158 161 170 165 164 167 168 164 148 155 169 186 175 111 321 284 251 168 167 260 132 285 132 2 348 279 272 269 292 284 323 327 307